Temperature
3 3 3 4 3 3 3 5 6 6 6 7 7 6 5 4 3 3 3 2 2 2 2 2 2 2 2 2 2 2 2 2 2 1 1 1 1 1 1 1 2 2 2 2
2 2 3 3 3 3 3 4 4 5 5 6 6 5 4 4 3 2 2 2 2 2 2 2 2 2 2 2 2 1 1 1 1 1 1 1 1 1 1 1 1 1 1 1
4 2 2 4 4 3 3 3 4 5 6 5 5 4 4 3 3 2 2 2 2 2 2 2 2 2 1 1 1 1 1 1 1 1 0 0 0 0 0 0 0 0 0 0
3 2 3 6 3 3 3 3 3 4 4 4 4 4 3 3 3 2 2 2 2 2 2 2 2 1 1 1 1 1 1 0 0 0 -0 -0 -0 -0 -0 -0 -0 -0 -0 -0
2 3 5 5 3 2 2 3 3 3 4 3 2 2 3 3 3 2 2 2 2 2 2 2 1 1 1 1 0 0 0 0 -0 -0 -0 -1 -1 -1 -1 -1 -1 -1 -1 -1
2 3 4 6 3 1 3 4 4 2 3 2 2 4 5 3 3 2 2 2 2 1 1 1 1 1 0 0 0 -0 -0 -0 -0 -1 -1 -1 -1 -1 -1 -1 -1 -1 -2 -1
2 3 4 4 1 1 4 5 3 2 2 1 2 3 3 3 2 2 2 1 1 1 1 1 1 0 0 -0 -0 -0 -0 -1 -1 -1 -1 -1 -2 -2 -2 -2 -2 -2 -2 -2
2 2 4 2 1 3 4 3 2 2 2 1 1 2 2 2 1 1 1 1 1 1 0 0 0 -0 -0 -1 -1 -1 -1 -1 -1 -1 -2 -2 -2 -2 -2 -2 -2 -2 -3 -3
2 4 3 1 2 2 2 2 2 2 2 1 1 1 1 1 1 1 0 0 0 -0 -0 -0 -0 -1 -1 -1 -1 -1 -1 -1 -2 -2 -2 -2 -2 -3 -3 -3 -3 -3 -3 -3
0 2 2 1 1 2 2 2 2 2 2 2 1 1 1 1 0 0 -0 -0 -0 -1 -1 -1 -1 -1 -1 -1 -1 -2 -2 -2 -2 -2 -2 -3 -3 -3 -3 -3 -4 -4 -4 -4
-0 1 1 1 2 2 2 2 2 2 2 1 1 1 1 0 0 -0 -1 -1 -1 -1 -1 -1 -1 -2 -2 -2 -2 -2 -2 -2 -3 -3 -3 -3 -3 -3 -4 -4 -4 -4 -4 -4
2 2 2 3 3 2 2 2 2 1 1 1 1 1 0 0 -0 -0 -1 -1 -1 -1 -1 -1 -2 -2 -2 -2 -2 -3 -3 -3 -3 -3 -3 -4 -4 -4 -4 -4 -4 -4 -4 -5
2 2 2 2 2 2 2 2 1 1 1 1 1 0 0 -0 -0 -1 -1 -1 -1 -1 -2 -2 -2 -2 -3 -3 -3 -3 -3 -3 -4 -4 -4 -4 -4 -4 -4 -4 -5 -5 -5 -5
1 1 1 1 1 1 1 1 1 1 0 0 0 -0 -0 -0 -1 -1 -1 -1 -2 -2 -2 -2 -2 -3 -3 -3 -3 -3 -4 -4 -4 -4 -4 -4 -5 -5 -5 -5 -5 -5 -5 -5
1 1 1 1 1 1 1 1 0 0 0 -0 -0 -0 -1 -1 -1 -1 -2 -2 -2 -2 -2 -3 -3 -3 -3 -3 -3 -4 -4 -4 -4 -4 -5 -5 -5 -5 -5 -5 -5 -5 -5 -6
0 0 -0 -0 0 0 -0 -0 -0 -0 -0 -1 -1 -1 -1 -1 -2 -2 -2 -2 -2 -3 -3 -3 -3 -3 -3 -3 -4 -4 -4 -4 -4 -5 -5 -5 -5 -6 -6 -6 -6 -6 -6 -6
-1 -1 -1 -1 -0 -0 -0 -0 -0 -1 -1 -1 -1 -2 -2 -2 -2 -2 -3 -3 -3 -3 -3 -3 -3 -3 -3 -4 -4 -4 -4 -5 -5 -5 -5 -6 -6 -6 -6 -6 -6 -6 -6 -6
0 0 -0 -0 -0 -0 -0 -1 -1 -1 -1 -1 -2 -2 -2 -2 -2 -2 -3 -3 -3 -3 -3 -3 -3 -3 -3 -4 -4 -4 -5 -5 -5 -6 -6 -6 -6 -6 -6 -6 -6 -7 -7 -7
-0 -0 -1 -1 -1 -1 -1 -1 -1 -1 -2 -2 -2 -2 -2 -3 -3 -3 -3 -3 -3 -3 -3 -3 -3 -4 -4 -4 -4 -5 -5 -5 -5 -6 -6 -6 -6 -6 -7 -7 -7 -7 -7 -7
-1 -1 -1 -1 -1 -1 -1 -1 -2 -2 -2 -2 -3 -3 -3 -3 -3 -3 -3 -3 -3 -3 -3 -4 -4 -4 -4 -4 -4 -5 -5 -5 -5 -6 -6 -6 -6 -7 -7 -7 -7 -7 -7 -7
-1 -1 -2 -2 -2 -2 -2 -2 -2 -2 -2 -3 -3 -3 -3 -3 -3 -3 -4 -4 -4 -4 -4 -4 -4 -4 -4 -5 -5 -5 -5 -5 -6 -6 -6 -6 -6 -7 -7 -7 -7 -7 -7 -7
-2 -2 -2 -2 -2 -2 -2 -2 -2 -3 -3 -3 -3 -3 -3 -3 -4 -4 -4 -4 -4 -4 -4 -4 -5 -5 -5 -5 -5 -5 -6 -6 -6 -6 -6 -6 -7 -7 -7 -7 -7 -7 -7 -8
-2 -2 -2 -2 -2 -2 -2 -3 -3 -3 -3 -3 -3 -3 -4 -4 -4 -4 -4 -4 -4 -5 -5 -5 -5 -5 -5 -5 -6 -6 -6 -6 -6 -6 -7 -7 -7 -7 -7 -7 -7 -7 -8 -8
-3 -3 -3 -3 -3 -3 -3 -3 -3 -3 -4 -4 -4 -4 -4 -4 -4 -4 -5 -5 -5 -5 -5 -5 -5 -5 -6 -6 -6 -6 -6 -7 -7 -7 -7 -7 -7 -7 -7 -7 -8 -8 -8 -8
-3 -3 -3 -3 -3 -3 -3 -3 -4 -4 -4 -4 -4 -4 -4 -4 -5 -5 -5 -5 -5 -5 -5 -5 -5 -6 -6 -6 -7 -7 -7 -7 -7 -7 -7 -7 -7 -7 -8 -8 -8 -8 -8 -8
-3 -4 -4 -4 -4 -4 -4 -4 -4 -4 -4 -4 -4 -5 -5 -5 -5 -5 -5 -5 -5 -6 -6 -6 -6 -6 -6 -7 -7 -7 -7 -7 -7 -7 -7 -7 -8 -8 -8 -8 -8 -8 -8 -8
-4 -4 -4 -4 -4 -4 -4 -4 -4 -4 -4 -5 -5 -5 -5 -5 -5 -5 -6 -6 -6 -6 -6 -6 -6 -7 -7 -7 -7 -7 -7 -7 -8 -8 -8 -8 -8 -8 -8 -8 -8 -8 -8 -8
Wind_Speed
7 6 6 8 10 11 13 13 12 13 14 13 11 10 9 7 6 6 6 6 6 5 4 4 3 3 3 3 2 2 3 3 2 2 2 2 2 2 2 2 3 3 3 4
7 7 8 11 13 14 16 15 16 16 17 13 11 9 9 9 8 8 7 7 6 6 5 5 4 4 3 3 3 3 3 3 2 2 2 2 2 2 2 3 3 3 3 4
6 4 5 10 12 15 13 13 13 16 14 9 9 10 10 9 9 9 8 7 7 7 6 5 5 4 4 4 3 4 3 3 3 3 3 3 2 3 3 3 3 4 4 4
3 2 9 5 1 8 11 13 13 13 11 10 11 9 9 9 9 9 8 7 7 6 6 5 4 4 4 3 3 4 4 3 3 3 3 3 3 3 3 3 4 4 5 5
4 6 10 7 4 5 8 9 11 14 14 11 7 7 8 8 8 9 8 7 7 6 5 5 4 4 4 4 4 4 4 4 4 4 4 4 4 4 4 4 4 4 5 6
5 6 7 4 2 3 3 7 5 9 11 8 5 7 6 4 6 7 6 6 5 5 5 5 4 4 4 5 5 5 5 4 4 4 5 5 5 4 4 4 5 5 5 6
9 8 8 3 3 6 5 4 1 4 6 7 8 7 4 3 4 5 5 5 5 5 5 5 4 4 5 5 5 5 4 4 4 5 5 5 5 4 4 4 5 5 6 6
7 8 9 5 7 8 5 2 2 4 5 6 7 6 5 4 4 4 4 4 5 4 4 4 4 5 6 6 5 4 4 4 4 4 4 4 5 5 5 5 5 5 5 5
9 8 3 7 8 6 4 4 5 5 5 6 6 6 5 5 5 5 4 4 4 4 4 3 4 5 6 5 4 4 4 4 4 4 4 4 4 5 4 4 4 4 4 5
8 11 9 9 10 9 8 8 7 6 6 6 6 6 6 5 5 5 5 4 4 4 5 4 4 5 5 4 4 4 5 4 4 4 4 4 4 4 4 4 4 5 5 5
11 11 9 10 12 12 10 8 7 6 6 7 6 6 6 6 6 5 5 4 4 5 5 5 4 5 4 4 5 5 5 4 4 4 4 4 4 4 5 6 6 6 5 5
10 8 7 8 7 9 9 10 9 7 7 7 7 7 6 6 5 5 5 4 4 5 5 5 4 4 4 4 5 5 5 5 4 4 4 4 4 4 6 8 8 9 9 8
10 7 8 9 7 7 9 9 8 8 8 7 6 6 6 5 5 5 5 5 5 5 5 4 4 4 4 4 5 6 5 5 4 4 4 4 4 5 5 5 7 8 9 10
10 8 8 9 8 7 7 7 6 6 6 6 5 5 5 5 5 5 6 6 5 4 4 4 4 5 4 4 5 6 6 6 5 4 5 5 5 5 5 5 5 5 6 8
11 11 10 7 6 5 5 4 5 5 5 4 4 5 5 5 6 6 5 4 4 4 4 4 4 5 4 4 5 6 5 4 4 4 5 5 5 5 5 5 6 5 5 5
9 8 9 9 9 7 6 6 6 6 5 5 5 5 5 5 5 5 4 4 5 5 5 4 5 5 4 4 5 5 5 6 5 4 4 5 5 5 5 5 5 6 6 5
8 9 9 9 10 9 8 8 8 7 6 6 6 5 4 4 4 4 4 4 4 5 4 5 5 4 4 5 5 4 4 5 6 5 5 5 5 5 5 5 6 6 6 6
10 10 9 8 8 9 8 7 7 7 6 6 5 5 5 5 5 5 4 3 3 3 4 4 4 4 4 4 4 4 4 4 4 4 5 5 5 5 5 6 6 7 6 6
8 8 7 7 6 6 6 6 6 6 5 5 5 5 5 5 5 4 4 4 4 4 4 4 5 4 4 4 4 3 4 4 4 4 4 6 6 5 5 6 6 6 6 5
5 5 5 5 4 4 5 5 5 4 4 5 5 4 4 4 4 4 4 4 4 3 2 3 3 3 3 4 4 3 4 4 4 4 4 5 5 5 5 5 6 6 5 5
3 3 3 3 3 3 4 4 4 4 4 4 5 5 4 3 3 3 3 3 3 2 2 3 3 2 2 3 4 3 3 3 4 4 4 4 4 5 5 5 5 5 5 5
2 2 2 2 2 1 1 2 3 4 3 3 3 3 3 3 3 3 3 3 2 2 2 2 2 2 3 3 2 3 3 3 3 3 3 4 4 4 4 4 4 4 4 5
1 1 1 2 2 1 0 1 2 3 3 3 4 4 3 3 3 3 2 2 2 3 2 2 2 3 3 2 2 2 3 3 3 3 3 4 4 4 4 4 4 4 4 4
0 0 0 1 2 2 1 0 1 1 2 2 2 2 2 2 1 2 1 2 3 2 2 2 3 2 2 1 2 2 2 3 3 3 3 3 3 3 3 4 4 4 4 5
1 1 1 2 2 1 1 1 2 2 2 1 1 1 1 1 2 1 1 2 2 2 1 2 2 2 1 1 1 2 2 2 3 3 3 3 3 3 3 4 4 4 4 5
1 1 1 1 1 1 1 1 1 1 1 1 1 1 1 0 1 1 1 1 1 1 0 0 0 0 0 1 1 2 2 2 3 3 3 3 3 3 4 4 5 4 4 5
1 1 1 1 1 1 1 1 2 1 1 1 0 0 0 1 1 1 1 1 0 0 0 0 0 0 0 1 1 1 1 2 2 2 3 3 3 3 4 4 4 4 4 4
Wind_Direction
263 268 255 251 243 229 231 239 245 254 257 262 260 258 257 250 246 244 243 242 242 246 246 235 229 226 221 218 215 212 210 211 221 234 244 249 255 262 268 272 275 279 281 281
263 258 256 262 250 237 240 244 248 258 265 267 270 266 259 252 245 241 241 239 238 241 242 237 230 227 220 217 216 220 221 223 224 228 234 240 248 255 259 265 270 274 274 276
262 280 277 263 241 228 232 232 233 243 253 261 259 253 251 248 242 240 239 235 231 233 235 234 230 225 224 221 216 217 222 225 226 232 239 246 253 255 259 267 272 272 275 276
252 243 246 257 217 219 232 244 237 246 256 256 260 271 266 251 241 240 239 233 230 232 232 229 222 218 214 211 212 218 226 231 230 235 246 256 259 263 270 273 273 276 278 277
214 242 266 269 230 205 218 254 236 239 250 258 272 281 263 239 236 239 237 233 228 226 222 217 218 212 205 208 213 221 229 234 235 236 242 249 256 263 268 270 273 277 278 277
215 234 248 260 165 175 204 262 235 229 242 247 236 254 257 225 235 239 237 231 224 217 212 214 216 207 208 216 219 227 232 236 235 236 239 246 254 259 262 264 268 273 276 276
227 240 259 255 152 161 210 257 226 222 232 225 230 254 289 245 236 234 232 225 216 209 213 217 213 205 217 224 229 234 236 236 235 236 240 246 252 255 258 262 268 273 276 278
214 231 248 171 164 206 246 303 247 246 238 236 250 269 270 251 242 234 228 222 214 213 221 222 213 210 223 232 233 229 228 230 233 235 238 241 246 253 255 259 265 271 275 281
216 233 269 187 211 236 253 254 257 253 250 247 255 260 256 250 242 237 231 226 221 215 224 233 226 218 229 234 223 220 224 231 233 235 237 240 244 250 254 256 261 269 273 279
251 256 253 242 245 250 249 255 265 260 252 243 251 252 249 245 240 234 232 227 219 213 222 233 232 230 233 229 217 217 222 228 231 232 237 239 243 246 250 253 258 264 268 275
252 262 271 258 242 245 250 257 260 258 251 242 241 247 244 241 236 232 232 226 216 216 225 233 232 232 232 222 209 215 222 226 229 232 238 242 245 248 251 252 256 260 264 269
245 245 241 256 253 246 246 247 247 249 255 250 241 243 243 242 237 231 228 222 220 225 229 234 231 231 230 222 211 212 220 225 228 230 235 242 249 258 253 254 266 266 269 272
253 257 255 267 270 255 249 252 249 244 244 247 247 237 234 241 237 228 224 221 222 228 232 234 232 233 230 220 214 217 223 227 230 232 235 241 246 254 266 262 256 262 266 271
246 248 257 253 256 255 252 253 251 249 246 242 236 228 223 231 230 225 227 227 225 227 230 231 232 237 233 221 215 218 224 228 231 234 237 241 245 250 255 264 271 271 268 269
240 237 246 257 262 256 248 240 238 241 239 239 229 221 218 221 227 231 230 220 214 222 226 225 231 241 232 223 219 220 221 224 227 234 238 242 246 250 253 258 263 271 275 272
243 241 241 245 248 246 240 233 233 239 238 238 233 229 226 225 228 228 221 208 209 223 223 223 234 239 228 222 223 224 225 228 229 233 236 239 243 248 252 256 260 263 266 270
230 236 235 240 241 240 236 233 234 236 236 234 231 224 215 211 216 223 224 221 223 228 225 226 235 235 225 222 224 225 224 223 228 234 235 238 242 246 250 253 257 261 263 266
231 235 230 233 232 233 236 235 232 231 233 233 224 210 206 207 215 222 222 216 220 236 237 232 231 227 224 224 226 224 222 224 227 234 238 240 245 247 249 252 255 259 265 267
235 236 234 236 233 227 228 228 226 227 227 216 208 211 215 216 215 213 202 201 213 235 243 232 229 228 229 228 223 218 218 223 229 235 240 246 249 249 249 251 254 257 261 262
246 241 235 237 234 224 223 223 218 218 216 204 200 204 211 214 202 196 198 215 228 239 231 227 225 228 229 224 217 217 218 223 231 238 241 243 247 250 250 252 254 256 255 256
249 240 225 217 233 236 222 213 205 207 206 196 198 204 209 209 196 191 198 229 248 238 224 221 226 229 224 219 218 223 224 230 236 241 243 247 250 250 251 252 253 254 255 258
257 228 214 203 200 232 236 206 192 189 188 193 194 187 185 192 197 211 229 235 233 220 217 227 232 225 216 218 222 226 232 238 244 248 248 250 251 253 254 256 258 259 257 258
254 221 200 190 188 191 183 174 175 178 185 190 189 190 194 200 201 206 238 233 218 217 224 236 237 220 215 216 222 227 235 242 248 252 254 253 252 254 258 261 262 261 262 263
236 178 148 126 128 137 150 149 143 161 170 182 189 191 186 188 224 240 241 212 216 213 228 239 231 224 214 217 227 237 243 250 256 259 259 258 258 260 262 263 265 265 265 267
172 147 136 136 142 159 153 117 102 106 112 116 132 172 204 213 212 222 214 205 206 203 223 232 231 229 217 222 235 249 256 261 264 266 261 261 263 265 267 267 266 268 268 267
170 177 187 197 184 165 154 146 145 145 133 119 65 47 48 56 129 158 168 176 187 196 200 202 200 211 235 260 265 268 272 278 279 274 268 266 268 269 270 270 273 272 272 271
127 121 120 106 99 147 154 157 161 168 167 156 128 76 76 82 102 112 121 125 128 107 71 69 66 25 310 298 293 293 290 288 287 285 280 273 272 271 272 273 274 276 276 274
Height
1483 1484 1483 1482 1482 1484 1483 1475 1472 1464 1464 1461 1463 1465 1466 1467 1468 1468 1469 1469 1469 1469 1470 1470 1470 1470 1471 1471 1471 1471 1471 1471 1471 1471 1471 1471 1471 1471 1471 1471 1471 1470 1470 1469
1484 1483 1482 1479 1476 1478 1477 1474 1471 1468 1463 1460 1462 1464 1464 1464 1465 1465 1465 1465 1465 1466 1466 1466 1467 1467 1468 1468 1468 1469 1468 1468 1468 1468 1468 1468 1468 1467 1467 1467 1467 1466 1466 1466
1475 1481 1479 1470 1465 1468 1467 1465 1463 1460 1455 1457 1458 1459 1459 1459 1460 1460 1461 1461 1462 1462 1462 1463 1464 1464 1465 1465 1465 1465 1465 1465 1465 1465 1465 1465 1464 1464 1464 1463 1463 1463 1462 1462
1477 1479 1474 1455 1460 1460 1460 1458 1458 1455 1453 1454 1454 1454 1454 1454 1455 1456 1457 1457 1458 1459 1459 1460 1461 1461 1462 1462 1462 1462 1462 1462 1462 1462 1461 1461 1461 1460 1460 1460 1459 1459 1458 1458
1475 1469 1457 1454 1457 1459 1459 1454 1452 1452 1451 1452 1452 1452 1450 1450 1451 1452 1453 1454 1455 1455 1456 1456 1457 1458 1458 1459 1459 1459 1459 1459 1459 1458 1458 1458 1457 1457 1456 1456 1455 1455 1454 1453
1473 1465 1456 1446 1453 1455 1457 1450 1446 1447 1447 1448 1450 1448 1444 1446 1447 1448 1449 1450 1451 1451 1452 1453 1453 1454 1454 1455 1455 1455 1455 1455 1455 1455 1455 1454 1454 1453 1453 1452 1451 1451 1450 1449
1467 1460 1448 1448 1453 1455 1453 1442 1443 1443 1443 1445 1445 1444 1443 1443 1443 1444 1445 1446 1447 1447 1448 1449 1449 1450 1450 1451 1451 1451 1451 1451 1451 1451 1451 1451 1450 1450 1449 1448 1448 1447 1446 1445
1461 1457 1448 1447 1450 1448 1441 1441 1441 1440 1441 1441 1441 1440 1440 1440 1440 1440 1441 1442 1443 1443 1444 1445 1445 1446 1446 1446 1447 1447 1447 1447 1447 1447 1447 1446 1446 1446 1445 1444 1443 1443 1442 1441
1449 1443 1440 1441 1440 1439 1439 1439 1438 1438 1438 1438 1437 1437 1437 1437 1437 1437 1438 1438 1439 1439 1440 1441 1441 1442 1442 1442 1442 1443 1443 1443 1443 1442 1442 1442 1442 1441 1441 1440 1439 1438 1438 1437
1446 1438 1437 1437 1436 1436 1436 1436 1435 1435 1435 1435 1434 1434 1433 1434 1434 1434 1434 1435 1435 1436 1436 1436 1437 1437 1437 1438 1438 1438 1438 1438 1438 1438 1438 1438 1437 1437 1437 1436 1435 1434 1434 1433
1440 1435 1434 1432 1431 1432 1432 1432 1432 1432 1432 1431 1431 1430 1430 1430 1430 1430 1431 1431 1431 1432 1432 1432 1433 1433 1433 1433 1434 1434 1434 1434 1434 1434 1434 1433 1433 1433 1432 1432 1431 1430 1429 1429
1428 1428 1428 1426 1426 1427 1427 1427 1427 1427 1427 1427 1427 1427 1427 1426 1426 1427 1427 1427 1428 1428 1428 1428 1429 1429 1429 1429 1429 1430 1430 1430 1430 1430 1430 1429 1429 1428 1427 1427 1427 1426 1425 1424
1424 1423 1424 1422 1422 1423 1423 1423 1423 1422 1422 1422 1422 1423 1423 1423 1423 1423 1423 1423 1424 1424 1424 1424 1424 1424 1425 1425 1425 1426 1426 1426 1426 1426 1425 1425 1424 1423 1423 1423 1422 1421 1420 1419
1419 1420 1419 1418 1418 1418 1418 1418 1418 1418 1418 1418 1418 1418 1418 1419 1419 1419 1419 1419 1420 1420 1420 1420 1420 1420 1421 1421 1421 1421 1422 1422 1422 1421 1421 1420 1420 1419 1418 1417 1417 1416 1415 1415
1413 1414 1414 1413 1413 1413 1413 1413 1413 1413 1413 1413 1414 1414 1414 1414 1414 1415 1415 1416 1416 1416 1416 1416 1416 1417 1417 1417 1417 1417 1417 1417 1417 1417 1416 1416 1415 1414 1414 1413 1412 1411 1410 1410
1407 1408 1408 1408 1408 1408 1408 1408 1408 1408 1408 1408 1409 1409 1410 1410 1411 1411 1411 1411 1412 1412 1412 1412 1412 1413 1413 1413 1413 1413 1413 1413 1413 1412 1412 1411 1411 1410 1409 1408 1408 1407 1406 1405
1402 1402 1402 1402 1402 1402 1403 1403 1404 1404 1404 1404 1404 1405 1405 1406 1406 1406 1407 1407 1408 1408 1408 1409 1409 1409 1409 1409 1409 1409 1408 1408 1408 1408 1407 1407 1406 1405 1405 1404 1403 1402 1401 1400
1396 1396 1397 1396 1396 1397 1397 1398 1399 1399 1399 1400 1400 1401 1401 1401 1402 1402 1403 1403 1404 1404 1405 1405 1405 1405 1405 1405 1405 1404 1404 1404 1404 1403 1403 1402 1401 1401 1400 1399 1398 1397 1396 1396
1390 1390 1391 1391 1392 1392 1393 1393 1394 1394 1395 1395 1396 1396 1397 1398 1398 1399 1399 1400 1400 1400 1401 1401 1401 1401 1401 1401 1401 1400 1400 1400 1399 1399 1398 1397 1397 1396 1395 1394 1393 1393 1392 1391
1386 1386 1386 1386 1387 1388 1388 1389 1389 1390 1391 1392 1392 1393 1393 1394 1395 1396 1396 1397 1397 1397 1398 1398 1398 1398 1398 1398 1397 1397 1396 1396 1395 1395 1394 1393 1392 1391 1390 1389 1389 1388 1387 1387
1382 1382 1382 1382 1383 1384 1384 1385 1385 1386 1387 1388 1389 1389 1390 1391 1392 1392 1393 1393 1394 1395 1395 1395 1394 1394 1394 1394 1394 1393 1393 1392 1391 1390 1390 1388 1387 1386 1386 1385 1384 1383 1383 1382
1379 1379 1379 1380 1380 1381 1381 1382 1382 1383 1384 1385 1386 1387 1387 1388 1389 1389 1390 1391 1391 1391 1391 1391 1391 1391 1391 1391 1390 1390 1389 1389 1388 1387 1385 1384 1383 1382 1382 1381 1380 1379 1379 1378
1377 1377 1377 1378 1378 1378 1379 1380 1380 1381 1382 1383 1384 1384 1385 1385 1386 1387 1387 1388 1388 1388 1388 1388 1388 1388 1388 1387 1387 1386 1386 1385 1384 1383 1382 1381 1380 1379 1378 1377 1377 1376 1375 1374
1376 1376 1376 1376 1376 1377 1377 1378 1379 1380 1381 1382 1382 1383 1383 1384 1384 1385 1385 1385 1386 1386 1386 1386 1386 1385 1385 1384 1384 1383 1383 1382 1381 1380 1379 1378 1377 1376 1375 1374 1373 1372 1371 1371
1375 1375 1375 1375 1375 1376 1377 1377 1378 1379 1379 1380 1381 1382 1382 1382 1383 1383 1383 1383 1383 1383 1383 1383 1383 1383 1382 1382 1381 1380 1380 1379 1378 1377 1376 1375 1374 1373 1372 1371 1370 1369 1368 1367
1374 1374 1374 1374 1375 1375 1376 1376 1377 1377 1378 1379 1379 1380 1380 1381 1381 1381 1381 1381 1381 1382 1382 1381 1381 1380 1380 1379 1379 1378 1377 1376 1375 1374 1373 1372 1371 1370 1369 1368 1367 1366 1365 1364
1373 1373 1373 1374 1374 1375 1375 1376 1376 1377 1377 1378 1378 1379 1379 1379 1379 1380 1380 1380 1380 1380 1380 1380 1379 1379 1378 1377 1377 1376 1375 1374 1372 1371 1370 1369 1368 1367 1366 1364 1363 1362 1361 1360